This demonstration page uses our WeatherBlox Daily Observations layout. Learn more.

Hourly Observations for July 20, 2017

Temp ( °F °C ) Dew Point ( °F °C ) Humidity (%) Winds ( mph kmh ) Pressure ( in mb ) Visibility ( mi km ) Precip ( " mm )
12:53 am 00:53 Clear 71 21.7 69 20.6 94 94 Calm 30.11 1020 9 14.48406 0 0
1:53 am 01:53 Clear 69 20.6 69 20.6 100 100 Calm 30.11 1020 7 11.26538 0 0
2:53 am 02:53 Clear 70 21.1 69 20.6 97 97 Calm 30.08 1019 8 12.87472 0 0
3:53 am 03:53 Clear 69 20.6 68 20 96 96 Calm 30.06 1018 8 12.87472 0 0
4:53 am 04:53 Mostly Clear with Mist and Fog 70 21.1 69 20.6 97 97 Calm 30.05 1018 6 9.65604 0 0
5:53 am 05:53 Clear 69 20.6 68 20 96 96 Calm 30.04 1017 7 11.26538 0 0
6:53 am 06:53 Sunny with Mist and Fog 70 21.1 69 20.6 97 97 Calm 30.05 1018 6 9.65604 0 0
7:53 am 07:53 Sunny with Mist and Fog 73 22.8 72 22.2 96 96 WSW 3 6 30.1 1019 6 9.65604 0 0
8:53 am 08:53 Sunny 77 25 73 22.8 88 88 Calm 30.11 1020 8 12.87472 0 0
9:53 am 09:53 Sunny 79 26.1 73 22.8 82 82 WSW 5 7 30.11 1020 9 14.48406 0 0
10:07 am 10:07 Hazy 80 26.7 73 22.8 79 79 WSW 6 9 30.09 1019 1.75 2.816345 0 0
10:22 am 10:22 Mostly Sunny 80 26.7 73 22.8 79 79 W 5 7 30.12 1020 9 14.48406 0 0
10:53 am 10:53 Mostly Sunny 80 26.7 73 22.8 79 79 W 6 9 30.12 1020 9 14.48406 0 0
11:53 am 11:53 Sunny 85 29.4 75 23.9 72 72 WSW 7 11 30.1 1019 9 14.48406 0 0
12:53 pm 12:53 Sunny 87 30.6 76 24.4 70 70 W 7 11 30.09 1019 9 14.48406 0 0
1:46 pm 13:46 Partly Cloudy with Nearby Thunderstorms 84 28.9 76 24.4 77 77 W 8 13 30.03 1017 8 12.87472 0 0
1:53 pm 13:53 Mostly Cloudy with Nearby Thunderstorms 84 28.9 76 24.4 77 77 WSW 5 7 30.07 1018 8 12.87472 0.001 0.001
2:31 pm 14:31 Mostly Cloudy with Light Rain 80 26.7 80 26.7 100 100 Calm 30.03 1017 5 8.0467 0.03 0.762
2:53 pm 14:53 Mostly Sunny 83 28.3 78 25.6 85 85 NE 3 6 30.01 1016 7 11.26538 0.03 0.762
3:53 pm 15:53 Mostly Sunny 88 31.1 78 25.6 73 73 Calm 30.01 1016 8 12.87472 0 0
4:53 pm 16:53 Mostly Sunny 87 30.6 77 25 72 72 WSW 10 17 30 1016 8 12.87472 0 0
5:53 pm 17:53 Sunny 87 30.6 77 25 72 72 N 3 6 29.99 1016 8 12.87472 0 0
6:53 pm 18:53 Mostly Sunny 89 31.7 77 25 68 68 WSW 7 11 29.98 1015 8 12.87472 0 0
7:53 pm 19:53 Sunny 87 30.6 74 23.3 65 65 W 8 13 29.98 1015 9 14.48406 0 0
8:53 pm 20:53 Sunny 81 27.2 76 24.4 85 85 Calm 29.98 1015 8 12.87472 0 0
9:53 pm 21:53 Cloudy 80 26.7 76 24.4 87 87 Calm 29.98 1015 8 12.87472 0 0
10:53 pm 22:53 Partly Cloudy 77 25 75 23.9 94 94 Calm 29.99 1016 8 12.87472 0 0
11:53 pm 23:53 Clear 76 24.4 75 23.9 97 97 Calm 30 1016 8 12.87472 0 0

Powered by AerisWeather